DELTA 1 DEB, 26847

Orbit data source: Space-Track

DELTA 1 DEB, 26847 is space debris in SSO originally from a launch on Thu, 12 Jun 1975 UTC launched from the Air Force Western Test Range (AFWTR). Debris objects in space refer to the collection of defunct objects orbiting the Earth. Examples of debris include non-operational satellites, rocket bodies, and fragments generated from explosions, collisions, or faulty payload assembly.

Loading next visibility...
Identifier
26847, 1975-052LB
Orbit
SSO
Country
Flag of USUS
Related business
Manufacturer
Unknown
Mission
Spacecraft
Bus & Motor
Unknown
Mass
Unknown
Launch date (UTC)
1975-06-12 (51 years ago)
Launch vehicle
Unknown
Launch site
Air Force Western Test Range (AFWTR)
Object type
Payload
Rocket body
Debris
Shape & HBR
Unknown shape, 0.1 m
Radar Cross Section
Small (<0.1 m²)

Expand to show TLE details & history
Last TLE update: 8 hours ago

TLE from 8 hours ago
0 DELTA 1 DEB
1 26847U 75052LB  25351.28850992  .00000012  00000-0  11605-3 0  9994
2 26847  99.6710   5.9920 0089568 254.8853 169.0954 13.27102940388773
Epoch: 2025-12-17T06:55Z
TLE epoch observation values (Epoch: 2025-12-17T06:55:27.257Z)
Latitude
62.62702°
Longitude
156.85189°
Altitude
1,234.684 km
Speed
7.211 km/s
True Right ascension
23h 07m 30s
True Declination
62° 29' 43"
Sunlit
Object was in daylight at epoch
Visualization orbit readout
Latitude
Unknown
Longitude
Unknown
Altitude
Unknown
Speed
Unknown
Apparent Right ascension
Unknown
Apparent Declination
Unknown
Sunlit
N/A
Visualization observer readout
Local Sidereal Time
13:12:22
Azimuth
Unknown
Elevation
Unknown
Doppler factor
Unknown
Orbital elements
Apogee altitude
1,222.514 km
Perigee altitude
1,087.568 km
Semi-major axis
7,533.178 km
Eccentricity
0.00896
Inclination
99.671°
RAAN
5.992°
Arg. of periapsis
254.8853°
True anomaly
169.28745°
Mean anomaly
169.0954°
Eccentric anomaly
169.19164°
Mean motion
3.31952 °/min
Orbital period
108.45 mins
BSTAR
0.00011605
Loading maneuver chart data...
Computing Atmospheric mass density...
Loading historical data...
Loading historical data...
Loading historical data...
Loading historical data...
Loading historical data...
Loading historical data...
Loading historical data...

Documentation

Showing up to 5 results
|